This is the latest recevied weather packets stored in our database for station/object KD0ISH. If no packets are shown the sender has not sent any weather packets the latest 10 day(s).
| Time | Temp. | Humidity | Pressure | Rain* | Wind** | Luminosity | Snow |
|---|---|---|---|---|---|---|---|
| 1777813436 | 11.67° C | 66% | 1018.8 hPa | 0 mm | - | 175 W/m² | - |
| 1777813134 | 11.11° C | 68% | 1018.9 hPa | 0 mm | - | 48 W/m² | - |
| 1777812832 | 11.11° C | 68% | 1019 hPa | 0 mm | - | 35 W/m² | - |
| 1777812528 | 11.11° C | 69% | 1019.1 hPa | 0 mm | - | 117 W/m² | - |
| 1777812226 | 10.56° C | 70% | 1018.8 hPa | 0 mm | - | 108 W/m² | - |
| 1777811924 | 10.56° C | 70% | 1019 hPa | 0 mm | - | 34 W/m² | - |
| 1777811623 | 10.56° C | 71% | 1019 hPa | 0 mm | - | 48 W/m² | - |
| 1777811322 | 10° C | 70% | 1019.2 hPa | 0 mm | - | 54 W/m² | - |
| 1777811020 | 10° C | 71% | 1019 hPa | 0 mm | - | 59 W/m² | - |
| 1777810717 | 10° C | 72% | 1018.9 hPa | 0 mm | - | 49 W/m² | - |
| 1777810414 | 10° C | 71% | 1018.9 hPa | 0 mm | - | 38 W/m² | - |
| 1777810109 | 10° C | 72% | 1018.8 hPa | 0 mm | - | 32 W/m² | - |
| 1777809807 | 10° C | 72% | 1018.7 hPa | 0 mm | - | 29 W/m² | - |
| 1777809505 | 9.44° C | 73% | 1018.8 hPa | 0 mm | - | 24 W/m² | - |
| 1777809202 | 9.44° C | 73% | 1019 hPa | 0 mm | - | 22 W/m² | - |
| 1777808900 | 9.44° C | 73% | 1018.9 hPa | 0 mm | - | 18 W/m² | - |
| 1777808597 | 8.89° C | 73% | 1018.9 hPa | 0 mm | - | 12 W/m² | - |
| 1777808293 | 8.89° C | 74% | 1019.1 hPa | 0 mm | - | 10 W/m² | - |
| 1777807992 | 8.89° C | 74% | 1019.1 hPa | 0 mm | - | 7 W/m² | - |
| 1777807689 | 8.33° C | 75% | 1019 hPa | 0 mm | - | 5 W/m² | - |
| 1777807387 | 8.33° C | 76% | 1019 hPa | 0 mm | - | 2 W/m² | - |
| 1777807082 | 8.33° C | 75% | 1018.8 hPa | 0 mm | - | 1 W/m² | - |
| 1777806780 | 8.33° C | 75% | 1018.8 hPa | 0 mm | - | 0 W/m² | - |
| 1777806475 | 8.33° C | 75% | 1018.8 hPa | 0 mm | - | 0 W/m² | - |
| 1777806172 | 8.33° C | 75% | 1018.7 hPa | 0 mm | - | 0 W/m² | - |
* Rain latest hour (hover to see other rain measurements)
** Current wind speed in m/s (hover to see current wind gust speed)